Flag Weather past 2 weeks in Olten, Solothurn, Switzerland

Now
46 °F

Cool.


Feels Like: 46 °F
Forecast: 38 / 56 °F
Wind: 2 mph from Northeast

Location: Wynau

Current Time: Nov 25, 2014 at 9:55:56 PM

Latest Report: Nov 25, 2014 at 9:00 PM


Visibility: N/A

Pressure: 30.10 "Hg

Humidity: 99%

Dew point: 45 °F

Location of OltenLocation

Historic Weather in Olten — Graph

°F

Olten temperature yesterday

Maximum temperature yesterday: 53 °F (at 3:00 PM)
Minimum temperature yesterday: 42 °F (at 7:00 AM)
Average temperature yesterday: 46 °F

Past Weeks' High & Low Weather Summary

 TemperatureHumidityPressure
High53 °F (Nov 24, 3:00 PM)100% (Nov 10, 10:00 PM)30.32 "Hg (Nov 10, 10:00 PM)
Low33 °F (Nov 20, 2:00 AM)70% (Nov 19, 2:00 PM)29.59 "Hg (Nov 15, 6:00 PM)
Average44 °F95%29.97 "Hg
* Reported Nov 10 8:00 PM — Nov 25 8:00 PM, Olten, Weather by CustomWeather, © 2014

Note: Actual official high and low records may vary slightly from our data, if they occured in-between our weather recording intervals... More about our weather records

Advertising

Olten weather history for previous 24 hours

 ConditionsComfort  
Time TempWeatherWind HumidityBarometerVisibility
8:00 PM
Nov 25
46 °FCool.5 mph98%30.10 "HgN/A
7:00 PM46 °FCool.3 mph98%30.10 "HgN/A
6:00 PM46 °FCool.6 mph96%30.10 "HgN/A
5:00 PM47 °FCool.9 mph94%30.11 "HgN/A
4:00 PM48 °FCool.6 mph91%30.11 "HgN/A
3:00 PM48 °FCool.7 mph93%30.11 "HgN/A
2:00 PM48 °FCool.6 mph92%30.13 "HgN/A
1:00 PM48 °FCool.7 mph93%30.14 "HgN/A
12:00 PM47 °FCool.6 mph94%30.15 "HgN/A
11:00 AM47 °FCool.7 mph96%30.16 "HgN/A
10:00 AM47 °FCool.5 mph96%30.17 "HgN/A
9:00 AM47 °FCool.6 mph96%30.17 "HgN/A
8:00 AM47 °FCool.6 mph96%30.17 "HgN/A
7:00 AM47 °FCool.6 mph95%30.18 "HgN/A
6:00 AM48 °FCool.7 mph95%30.18 "HgN/A
5:00 AM48 °FCool.9 mph94%30.18 "HgN/A
4:00 AM48 °FCool.8 mph94%30.19 "HgN/A
3:00 AM48 °FCool.8 mph94%30.19 "HgN/A
2:00 AM46 °FCool.5 mph97%30.21 "HgN/A
1:00 AM45 °FCool.3 mph99%30.22 "HgN/A
12:00 AM44 °FQuite cool.2 mph100%30.23 "HgN/A
11:00 PM
Nov 24
47 °FCool.2 mph97%30.23 "HgN/A
10:00 PM47 °FCool.No wind98%30.23 "HgN/A
9:00 PM46 °FCool.2 mph100%30.23 "HgN/A
Weather by CustomWeather, © 2014

See weather overviewHow to use our weather pages